Regional Weather Roundup
Issued by NWS Sterling, VA

Home | Current Version | Previous Version | Text Only | Print | Product List | Glossary Off
Versions: 1 2 3 4 5 6 7 8 9 10 11 12 13 14 15 16 17 18 19 20 21 22 23 24 25 26 27 28 29 30 31 32 33 34 35 36 37 38 39 40 41 42 43 44 45 46 47 48 49 50

000
ASUS41 KLWX 060410
RWRLWX

REGIONAL WEATHER ROUNDUP
NATIONAL WEATHER SERVICE BALTIMORE MD/WASHINGTON DC
1100 PM EST THU MAR 05 2015

Note: "FAIR" indicates few or no clouds below 12,000 feet
with no significant weather and/or obstructions to visibility.
 TC=TEMPERATURE CELSIUS

 * =Non NWS site. Station does not report precipitation (e.g. rain,
    snow, etc.), thunder, or fog.

DCZ001-MDZ009-015-VAZ040>042-051-053>054-060500-
WASHINGTON METRO

CITY           SKY/WX    TMP DP  RH WIND       PRES   REMARKS
WASHINGTON NAT CLOUDY    26  13  57 N13       30.46R WCI  15
DULLES         MOCLDY    21   8  57 N14       30.45R WCI   8
ANDREWS AFB    FLURRIES  22  13  68 NW13      30.41R WCI  10
FT BELVOIR     DRIZZLE   23  12  62 NW12G17   30.45R WCI  12
QUANTICO       CLOUDY    24  15  68 N13G23    30.47R WCI  12
COLLEGE PARK*  CLOUDY    25  16  68 NW7       30.44R
LEESBURG*      PTCLDY    21  12  68 N9G17     30.46R WCI  11
MANASSAS*      MOCLDY    21  12  68 N9        30.46R WCI  11
GAITHERSBURG*  PTCLDY    18   7  62 NW8       30.46R WCI   7

$$

MDZ006>007-011-014-060500-
BALTIMORE METRO

CITY           SKY/WX    TMP DP  RH WIND       PRES   REMARKS
BWI AIRPORT    CLOUDY    21  12  68 NW7       30.43R
MD SCIENCE CTR   N/A     24  10  55 MISG      30.47R
MARTIN STATE   CLOUDY    23  19  86 NW6       30.45R
ANNAPOLIS      CLOUDY    24  16  71 N12       30.43R WCI  13
FORT MEADE*    CLOUDY    23  18  80 CALM      30.45S

$$

MDZ012-015-019>023-060500-
MARYLAND EASTERN SHORE

CITY           SKY/WX    TMP DP  RH WIND       PRES   REMARKS
OCEAN CITY     CLOUDY    22  17  81 N13       30.37R WCI  10
SALISBURY      CLOUDY    25  16  68 N9        30.38R WCI  15
BAY BRIDGE AP*   N/A     25  19  80 NW7       30.44R
CAMBRIDGE*     CLOUDY    27  18  69 N13       30.40S WCI  16
EASTON*        CLOUDY    25  19  77 N8        30.45R WCI  16

$$

MDZ017>025-060500-
SOUTHERN MARYLAND

CITY           SKY/WX    TMP DP  RH WIND       PRES   REMARKS
PATUXENT RIVER CLOUDY    24  18  77 N17       30.41S WCI  11
ST INIGOES     CLOUDY    25  17  72 VRB7      30.40S
LEONARDTOWN*   CLOUDY    25  19  80 CALM      30.42S

$$

MDZ003>005-060500-
NORTH CENTRAL MARYLAND

CITY           SKY/WX    TMP DP  RH WIND       PRES   REMARKS
FREDERICK*     PTCLDY    21   3  45 N8        30.48R WCI  12
HAGERSTOWN APT CLEAR     13   1  59 NW9       30.44R WCI   1
WESTMINSTER*   PTCLDY    16   7  67 NW7       30.40R

$$

MDZ501>502-060500-
WESTERN MARYLAND

CITY           SKY/WX    TMP DP  RH WIND       PRES   REMARKS
OAKLAND*       CLEAR      3   3 100 NW7       30.27F
CUMBERLAND*    CLEAR     18   1  49 NW8G16    30.51S WCI   7

$$

VAZ025>031-060500-
SHENANDOAH VALLEY

CITY           SKY/WX    TMP DP  RH WIND       PRES   REMARKS
WINCHESTER*    CLEAR     19   3  49 N10       30.45R WCI   8
FRONT ROYAL*   FAIR      19   7  58 N6        30.44R
LURAY*         FAIR      21  12  68 N9        30.43R WCI  11
NEW MARKET*    MOCLDY    16   6  67 E5        30.42R
STAUNTON*      CLOUDY    21  15  78 N6        30.40R
WAYNESBORO*    CLOUDY    19  15  88 N6        30.36R

$$

WVZ021-048>050-054>055-060500-
EASTERN WEST VIRGINIA PANHANDLE

CITY           SKY/WX    TMP DP  RH WIND       PRES   REMARKS
MARTINSBURG    CLEAR     18   2  49 N8        30.46R WCI   8
PETERSBURG*    NOT AVBL

$$

VAZ036>039-050-060500-
CENTRAL FOOTHILLS

CITY           SKY/WX    TMP DP  RH WIND       PRES   REMARKS
CHARLOTTESVILL PTCLDY    23  14  68 NW8       30.40R WCI  14
CULPEPER*      PTCLDY    21  10  63 N13       30.43F WCI   9
ORANGE*        PTCLDY    23  18  80 N6        30.43S
GORDONSVILLE*  FAIR      20  16  83 CALM      30.41R
WARRENTON*     FAIR      22  14  70 N12G20    30.44R WCI  11

$$

VAZ055>057-060500-
NORTH AND CENTRAL PIEDMONT

CITY           SKY/WX    TMP DP  RH WIND       PRES   REMARKS
FREDERICKSBRG* CLOUDY    25  16  68 NW12      30.45R WCI  14
STAFFORD*      CLOUDY    22  15  74 CALM      30.49R

$$

NCZ024-NYZ072-PAZ021-071-VAZ022-071-060500-
OTHER REGIONAL OBSERVATIONS

CITY           SKY/WX    TMP DP  RH WIND       PRES   REMARKS
NEW YORK CITY  CLOUDY    20   4  50 NW6G20    30.36R
PHILADELPHIA   CLOUDY    22  10  60 N13       30.42R WCI  10
PITTSBURGH     CLEAR      8  -1  66 N3        30.47S
ROANOKE        PTCLDY    23  13  65 N12       30.40R WCI  12
RICHMOND       CLOUDY    26  20  77 N14       30.41R WCI  14
RALEIGH        CLOUDY    32  26  78 N7        30.34R

$$

ANZ530>537-060500-
MARINE OBSERVATIONS

STATION/POSITION TIME  TEMP    WIND        PRES
                       AIR SEA DIR/SP/G
                 (UTC) (F)     (DEG/KT/KT) (MB)
THOMAS PT LIGHT  0400          130/ 12/ 15   N/A
BALT KEY BRIDGE  0300   23     310/ 12/ 14 1029.7R
COVE POINT       0300   23     360/ 13/ 18 1029.2R
LEWISETTA        0300   24 33  360/  8/ 14 1029.6R
SOLOMONS ISLAND  0300      33                N/A

$$



USA.gov is the U.S. government's official web portal to all federal, state and local government web resources and services.